Time,TemperatureF,DewpointF,PressureIn,WindDirection,WindDirectionDegrees,WindSpeedMPH,WindSpeedGustMPH,Humidity,HourlyPrecipIn,Conditions,Clouds,dailyrainin,SoftwareType,DateUTC
2013-05-19 00:04:00,46.4,31.1,30.07,WNW,288,0.0,0.0,55,0.00,,,0.00,WeatherTracker,2013-05-19 07:04:00,
2013-05-19 00:09:00,47.0,31.2,30.07,WNW,296,0.0,0.0,54,0.00,,,0.00,WeatherTracker,2013-05-19 07:09:00,
2013-05-19 00:14:00,46.9,30.7,30.07,WNW,296,0.0,0.0,53,0.00,,,0.00,WeatherTracker,2013-05-19 07:14:00,
2013-05-19 00:19:00,46.9,30.7,30.07,WNW,299,0.0,0.0,53,0.00,,,0.00,WeatherTracker,2013-05-19 07:19:00,
2013-05-19 00:24:00,47.0,30.8,30.08,WNW,299,0.0,0.0,53,0.00,,,0.00,WeatherTracker,2013-05-19 07:24:00,
2013-05-19 00:29:00,46.9,30.7,30.07,NW,319,0.0,0.0,53,0.00,,,0.00,WeatherTracker,2013-05-19 07:29:00,
2013-05-19 00:34:00,46.9,30.7,30.07,NW,323,0.0,1.0,53,0.00,,,0.00,WeatherTracker,2013-05-19 07:34:00,
2013-05-19 00:39:00,46.4,30.2,30.07,NW,323,0.0,1.0,53,0.00,,,0.00,WeatherTracker,2013-05-19 07:39:00,
2013-05-19 00:44:00,46.0,30.3,30.08,NW,323,0.0,1.0,54,0.00,,,0.00,WeatherTracker,2013-05-19 07:44:00,
2013-05-19 00:49:00,45.7,30.5,30.08,NW,323,0.0,0.0,55,0.00,,,0.00,WeatherTracker,2013-05-19 07:49:00,
2013-05-19 00:54:00,45.4,30.2,30.07,NW,322,0.0,0.0,55,0.00,,,0.00,WeatherTracker,2013-05-19 07:54:00,
2013-05-19 00:59:00,45.6,30.4,30.07,NW,322,0.0,0.0,55,0.00,,,0.00,WeatherTracker,2013-05-19 07:59:00,
2013-05-19 01:04:00,45.8,30.1,30.07,NW,322,0.0,0.0,54,0.00,,,0.00,WeatherTracker,2013-05-19 08:04:00,
2013-05-19 01:10:00,46.4,30.7,30.07,NW,322,0.0,0.0,54,0.00,,,0.00,WeatherTracker,2013-05-19 08:10:00,
2013-05-19 01:15:00,46.8,30.1,30.07,NW,322,0.0,0.0,52,0.00,,,0.00,WeatherTracker,2013-05-19 08:15:00,
2013-05-19 01:20:00,44.9,29.3,30.07,NW,322,0.0,0.0,54,0.00,,,0.00,WeatherTracker,2013-05-19 08:20:00,
2013-05-19 01:25:00,44.3,29.6,30.07,NW,322,0.0,0.0,56,0.00,,,0.00,WeatherTracker,2013-05-19 08:25:00,
2013-05-19 01:30:00,44.5,30.2,30.07,NW,322,0.0,0.0,57,0.00,,,0.00,WeatherTracker,2013-05-19 08:30:00,
2013-05-19 01:35:00,45.0,30.7,30.07,NW,322,0.0,0.0,57,0.00,,,0.00,WeatherTracker,2013-05-19 08:35:00,
2013-05-19 01:40:00,45.2,30.4,30.08,NW,322,0.0,0.0,56,0.00,,,0.00,WeatherTracker,2013-05-19 08:40:00,
2013-05-19 01:45:00,45.0,30.3,30.08,NW,322,0.0,0.0,56,0.00,,,0.00,WeatherTracker,2013-05-19 08:45:00,
2013-05-19 01:50:00,44.2,29.9,30.08,NW,322,0.0,0.0,57,0.00,,,0.00,WeatherTracker,2013-05-19 08:50:00,
2013-05-19 01:55:00,43.4,29.6,30.09,NW,322,0.0,0.0,58,0.00,,,0.00,WeatherTracker,2013-05-19 08:55:00,
2013-05-19 02:00:00,43.4,30.0,30.09,NNW,338,0.0,0.0,59,0.00,,,0.00,WeatherTracker,2013-05-19 09:00:00,
2013-05-19 02:05:00,43.9,30.5,30.09,NNW,340,0.0,0.0,59,0.00,,,0.00,WeatherTracker,2013-05-19 09:05:00,
2013-05-19 02:10:00,42.9,29.6,30.09,NE,39,0.0,0.0,59,0.00,,,0.00,WeatherTracker,2013-05-19 09:10:00,
2013-05-19 02:15:00,42.9,30.0,30.09,NE,51,0.0,0.0,60,0.00,,,0.00,WeatherTracker,2013-05-19 09:15:00,
2013-05-19 02:20:00,43.0,30.1,30.10,NE,42,0.0,0.0,60,0.00,,,0.00,WeatherTracker,2013-05-19 09:20:00,
2013-05-19 02:25:00,43.6,30.6,30.10,NNE,29,0.0,0.0,60,0.00,,,0.00,WeatherTracker,2013-05-19 09:25:00,
2013-05-19 02:30:00,44.7,31.3,30.10,NNE,21,0.0,0.0,59,0.00,,,0.00,WeatherTracker,2013-05-19 09:30:00,
2013-05-19 02:35:00,44.8,30.9,30.10,NNE,21,0.0,0.0,58,0.00,,,0.00,WeatherTracker,2013-05-19 09:35:00,
2013-05-19 02:40:00,44.6,30.7,30.10,NNE,21,0.0,0.0,58,0.00,,,0.00,WeatherTracker,2013-05-19 09:40:00,
2013-05-19 02:45:00,44.1,30.3,30.10,North,360,0.0,0.0,58,0.00,,,0.00,WeatherTracker,2013-05-19 09:45:00,
2013-05-19 02:50:00,43.9,30.5,30.10,North,360,0.0,0.0,59,0.00,,,0.00,WeatherTracker,2013-05-19 09:50:00,
2013-05-19 02:55:00,44.4,30.6,30.10,North,5,0.0,0.0,58,0.00,,,0.00,WeatherTracker,2013-05-19 09:55:00,
2013-05-19 03:00:00,43.6,30.2,30.10,North,360,0.0,0.0,59,0.00,,,0.00,WeatherTracker,2013-05-19 10:00:00,
2013-05-19 03:05:00,43.8,30.8,30.10,NNW,340,0.0,1.0,60,0.00,,,0.00,WeatherTracker,2013-05-19 10:05:00,
2013-05-19 03:10:00,45.0,32.0,30.10,NNW,340,0.0,1.0,60,0.00,,,0.00,WeatherTracker,2013-05-19 10:10:00,
2013-05-19 03:16:00,46.5,33.8,30.09,NNE,13,0.0,1.0,61,0.00,,,0.00,WeatherTracker,2013-05-19 10:16:00,
2013-05-19 03:21:00,47.8,34.2,30.09,NNE,30,0.0,1.0,59,0.00,,,0.00,WeatherTracker,2013-05-19 10:21:00,
2013-05-19 03:26:00,48.4,34.7,30.10,NNE,27,0.0,1.0,59,0.00,,,0.00,WeatherTracker,2013-05-19 10:26:00,
2013-05-19 03:31:00,48.9,35.2,30.10,NE,55,0.0,1.0,59,0.00,,,0.00,WeatherTracker,2013-05-19 10:31:00,
2013-05-19 03:36:00,49.0,35.3,30.10,NE,52,0.0,1.0,59,0.00,,,0.00,WeatherTracker,2013-05-19 10:36:00,
2013-05-19 03:41:00,49.0,35.7,30.10,NE,49,0.0,0.0,60,0.00,,,0.00,WeatherTracker,2013-05-19 10:41:00,
2013-05-19 03:46:00,49.0,35.7,30.10,NE,51,0.0,0.0,60,0.00,,,0.00,WeatherTracker,2013-05-19 10:46:00,
2013-05-19 03:51:00,49.0,35.7,30.10,NE,53,0.0,0.0,60,0.00,,,0.00,WeatherTracker,2013-05-19 10:51:00,
2013-05-19 03:56:00,48.9,35.6,30.10,NE,49,0.0,0.0,60,0.00,,,0.00,WeatherTracker,2013-05-19 10:56:00,
2013-05-19 04:01:00,48.8,35.5,30.10,NE,49,0.0,0.0,60,0.00,,,0.00,WeatherTracker,2013-05-19 11:01:00,
2013-05-19 04:06:00,48.8,35.5,30.10,NE,49,0.0,0.0,60,0.00,,,0.00,WeatherTracker,2013-05-19 11:06:00,
2013-05-19 04:11:00,41.9,36.5,30.11,NE,56,0.0,1.0,81,0.00,,,0.00,WeatherTracker,2013-05-19 11:11:00,
2013-05-19 04:16:00,42.4,36.7,30.10,ENE,57,1.0,1.0,80,0.00,,,0.00,WeatherTracker,2013-05-19 11:16:00,
2013-05-19 04:21:00,43.1,37.4,30.10,NE,56,2.0,2.0,80,0.00,,,0.00,WeatherTracker,2013-05-19 11:21:00,
2013-05-19 04:26:00,44.4,37.6,30.10,NE,56,0.0,2.0,77,0.00,,,0.00,WeatherTracker,2013-05-19 11:26:00,
2013-05-19 04:31:00,44.2,36.8,30.11,ENE,59,4.0,4.0,75,0.00,,,0.00,WeatherTracker,2013-05-19 11:31:00,
2013-05-19 04:36:00,43.1,36.4,30.11,ENE,59,3.0,4.0,77,0.00,,,0.00,WeatherTracker,2013-05-19 11:36:00,
2013-05-19 04:46:00,41.5,36.1,30.11,ENE,62,3.0,6.0,81,0.00,,,0.00,WeatherTracker,2013-05-19 11:46:00,
2013-05-19 04:51:00,40.9,35.8,30.11,ENE,64,2.0,6.0,82,0.00,,,0.00,WeatherTracker,2013-05-19 11:51:00,
2013-05-19 04:56:00,40.5,35.4,30.11,ENE,67,2.0,5.0,82,0.00,,,0.00,WeatherTracker,2013-05-19 11:56:00,
2013-05-19 05:01:00,40.7,35.6,30.11,ENE,68,3.0,5.0,82,0.00,,,0.00,WeatherTracker,2013-05-19 12:01:00,
2013-05-19 05:06:00,41.5,36.1,30.11,ENE,68,2.0,4.0,81,0.00,,,0.00,WeatherTracker,2013-05-19 12:06:00,
2013-05-19 05:11:00,42.6,36.6,30.11,ENE,67,2.0,4.0,79,0.00,,,0.00,WeatherTracker,2013-05-19 12:11:00,
2013-05-19 05:16:00,42.4,36.7,30.11,ENE,67,1.0,4.0,80,0.00,,,0.00,WeatherTracker,2013-05-19 12:16:00,
2013-05-19 05:21:00,41.6,36.2,30.11,ENE,67,1.0,4.0,81,0.00,,,0.00,WeatherTracker,2013-05-19 12:21:00,
2013-05-19 05:26:00,41.4,36.3,30.11,ENE,67,1.0,3.0,82,0.00,,,0.00,WeatherTracker,2013-05-19 12:26:00,
2013-05-19 05:31:00,41.5,36.4,30.10,ENE,67,1.0,3.0,82,0.00,,,0.00,WeatherTracker,2013-05-19 12:31:00,
2013-05-19 05:36:00,41.9,36.8,30.11,ENE,67,1.0,3.0,82,0.00,,,0.00,WeatherTracker,2013-05-19 12:36:00,
2013-05-19 05:41:00,41.9,37.1,30.11,ENE,67,0.0,2.0,83,0.00,,,0.00,WeatherTracker,2013-05-19 12:41:00,
2013-05-19 05:46:00,41.9,37.1,30.12,ENE,67,0.0,2.0,83,0.00,,,0.00,WeatherTracker,2013-05-19 12:46:00,
2013-05-19 05:51:00,41.8,37.0,30.12,ENE,67,1.0,0.0,83,0.00,,,0.00,WeatherTracker,2013-05-19 12:51:00,
2013-05-19 05:56:00,41.8,37.3,30.12,ENE,67,2.0,3.0,84,0.00,,,0.00,WeatherTracker,2013-05-19 12:56:00,
2013-05-19 06:01:00,41.6,37.1,30.12,ENE,67,2.0,3.0,84,0.00,,,0.00,WeatherTracker,2013-05-19 13:01:00,
2013-05-19 06:06:00,41.8,37.3,30.12,ENE,67,0.0,3.0,84,0.00,,,0.00,WeatherTracker,2013-05-19 13:06:00,
2013-05-19 06:11:00,42.0,37.8,30.12,ENE,70,3.0,5.0,85,0.00,,,0.00,WeatherTracker,2013-05-19 13:11:00,
2013-05-19 06:16:00,42.4,37.9,30.12,ENE,70,1.0,5.0,84,0.00,,,0.00,WeatherTracker,2013-05-19 13:16:00,
2013-05-19 06:21:00,42.7,38.2,30.12,ENE,70,0.0,3.0,84,0.00,,,0.00,WeatherTracker,2013-05-19 13:21:00,
2013-05-19 06:26:00,43.1,38.0,30.12,ENE,69,2.0,2.0,82,0.00,,,0.00,WeatherTracker,2013-05-19 13:26:00,
2013-05-19 06:31:00,43.5,38.7,30.13,ENE,69,0.0,2.0,83,0.00,,,0.00,WeatherTracker,2013-05-19 13:31:00,
2013-05-19 06:37:00,44.1,39.3,30.12,ENE,69,1.0,2.0,83,0.00,,,0.00,WeatherTracker,2013-05-19 13:37:00,
2013-05-19 06:42:00,44.7,39.9,30.12,ENE,70,2.0,2.0,83,0.00,,,0.00,WeatherTracker,2013-05-19 13:42:00,
2013-05-19 06:47:00,45.2,39.7,30.12,ENE,70,0.0,3.0,81,0.00,,,0.00,WeatherTracker,2013-05-19 13:47:00,
2013-05-19 06:52:00,45.8,39.7,30.12,ENE,70,0.0,3.0,79,0.00,,,0.00,WeatherTracker,2013-05-19 13:52:00,
2013-05-19 06:57:00,46.3,39.8,30.12,ENE,70,0.0,0.0,78,0.00,,,0.00,WeatherTracker,2013-05-19 13:57:00,
2013-05-19 07:02:00,46.7,39.2,30.13,ENE,70,0.0,0.0,75,0.00,,,0.00,WeatherTracker,2013-05-19 14:02:00,
2013-05-19 07:07:00,47.1,39.6,30.13,ENE,70,0.0,0.0,75,0.00,,,0.00,WeatherTracker,2013-05-19 14:07:00,
2013-05-19 07:12:00,47.4,39.2,30.13,ENE,70,0.0,0.0,73,0.00,,,0.00,WeatherTracker,2013-05-19 14:12:00,
2013-05-19 07:17:00,47.8,38.5,30.13,ENE,69,0.0,0.0,70,0.00,,,0.00,WeatherTracker,2013-05-19 14:17:00,
2013-05-19 07:22:00,48.3,38.6,30.13,ENE,69,1.0,1.0,69,0.00,,,0.00,WeatherTracker,2013-05-19 14:22:00,
2013-05-19 07:27:00,48.6,38.1,30.13,ENE,69,0.0,2.0,67,0.00,,,0.00,WeatherTracker,2013-05-19 14:27:00,
2013-05-19 07:32:00,49.0,38.1,30.13,ENE,69,1.0,2.0,66,0.00,,,0.00,WeatherTracker,2013-05-19 14:32:00,
2013-05-19 07:37:00,49.2,37.1,30.13,ENE,69,0.0,3.0,63,0.00,,,0.00,WeatherTracker,2013-05-19 14:37:00,
2013-05-19 07:42:00,49.6,37.9,30.13,ENE,69,3.0,3.0,64,0.00,,,0.00,WeatherTracker,2013-05-19 14:42:00,
2013-05-19 07:47:00,49.9,37.8,30.13,NNE,13,7.0,7.0,63,0.00,,,0.00,WeatherTracker,2013-05-19 14:47:00,
2013-05-19 07:52:00,49.7,37.2,30.13,North,360,5.0,10.0,62,0.00,,,0.00,WeatherTracker,2013-05-19 14:52:00,
2013-05-19 07:57:00,49.6,36.7,30.14,NNW,338,2.0,10.0,61,0.00,,,0.00,WeatherTracker,2013-05-19 14:57:00,
2013-05-19 08:02:00,49.9,37.4,30.13,NNE,16,5.0,9.0,62,0.00,,,0.00,WeatherTracker,2013-05-19 15:02:00,
2013-05-19 08:07:00,50.0,37.5,30.13,NNE,28,6.0,7.0,62,0.00,,,0.00,WeatherTracker,2013-05-19 15:07:00,
2013-05-19 08:12:00,49.9,37.0,30.13,NNE,21,6.0,7.0,61,0.00,,,0.00,WeatherTracker,2013-05-19 15:12:00,
2013-05-19 08:17:00,49.9,37.4,30.13,North,355,5.0,7.0,62,0.00,,,0.00,WeatherTracker,2013-05-19 15:17:00,
2013-05-19 08:22:00,49.8,37.7,30.13,NNW,336,2.0,7.0,63,0.00,,,0.00,WeatherTracker,2013-05-19 15:22:00,
2013-05-19 08:27:00,50.1,37.6,30.13,NNW,335,3.0,7.0,62,0.00,,,0.00,WeatherTracker,2013-05-19 15:27:00,
2013-05-19 08:32:00,50.2,36.9,30.13,NNW,327,2.0,6.0,60,0.00,,,0.00,WeatherTracker,2013-05-19 15:32:00,
2013-05-19 08:38:00,50.6,38.1,30.13,NNW,327,2.0,6.0,62,0.00,,,0.00,WeatherTracker,2013-05-19 15:38:00,
2013-05-19 08:43:00,50.9,37.1,30.13,NNW,334,4.0,6.0,59,0.00,,,0.00,WeatherTracker,2013-05-19 15:43:00,
2013-05-19 08:48:00,51.1,37.3,30.13,NNW,338,5.0,6.0,59,0.00,,,0.00,WeatherTracker,2013-05-19 15:48:00,
2013-05-19 08:53:00,51.5,37.2,30.13,NNW,341,3.0,6.0,58,0.00,,,0.00,WeatherTracker,2013-05-19 15:53:00,
2013-05-19 08:58:00,51.9,37.1,30.13,North,360,1.0,6.0,57,0.00,,,0.00,WeatherTracker,2013-05-19 15:58:00,
2013-05-19 09:03:00,52.8,38.9,30.12,North,5,0.0,5.0,59,0.00,,,0.00,WeatherTracker,2013-05-19 16:03:00,
2013-05-19 09:08:00,53.2,39.2,30.12,NNE,28,5.0,6.0,59,0.00,,,0.00,WeatherTracker,2013-05-19 16:08:00,
2013-05-19 09:13:00,53.3,37.5,30.12,North,355,5.0,6.0,55,0.00,,,0.00,WeatherTracker,2013-05-19 16:13:00,
2013-05-19 09:18:00,53.0,37.7,30.12,North,360,4.0,6.0,56,0.00,,,0.00,WeatherTracker,2013-05-19 16:18:00,
2013-05-19 09:23:00,52.8,37.5,30.12,NE,51,2.0,6.0,56,0.00,,,0.00,WeatherTracker,2013-05-19 16:23:00,
2013-05-19 09:28:00,52.7,37.0,30.12,NE,47,1.0,7.0,55,0.00,,,0.00,WeatherTracker,2013-05-19 16:28:00,
2013-05-19 09:33:00,53.0,38.2,30.12,NNE,24,7.0,7.0,57,0.00,,,0.00,WeatherTracker,2013-05-19 16:33:00,
2013-05-19 09:38:00,53.7,38.4,30.12,NNW,348,2.0,7.0,56,0.00,,,0.00,WeatherTracker,2013-05-19 16:38:00,
2013-05-19 09:43:00,53.3,36.6,30.12,NNE,23,3.0,7.0,53,0.00,,,0.00,WeatherTracker,2013-05-19 16:43:00,
2013-05-19 09:49:00,53.6,38.7,30.11,NNE,23,3.0,7.0,57,0.00,,,0.00,WeatherTracker,2013-05-19 16:49:00,
2013-05-19 09:54:00,53.8,37.1,30.11,NNE,22,0.0,5.0,53,0.00,,,0.00,WeatherTracker,2013-05-19 16:54:00,
2013-05-19 09:59:00,54.3,37.5,30.11,NNE,23,1.0,5.0,53,0.00,,,0.00,WeatherTracker,2013-05-19 16:59:00,
2013-05-19 10:04:00,54.6,39.2,30.11,NNE,23,2.0,5.0,56,0.00,,,0.00,WeatherTracker,2013-05-19 17:04:00,
2013-05-19 10:09:00,54.6,37.3,30.11,NNW,347,0.0,5.0,52,0.00,,,0.00,WeatherTracker,2013-05-19 17:09:00,
2013-05-19 10:14:00,54.8,38.9,30.11,NNW,342,4.0,7.0,55,0.00,,,0.00,WeatherTracker,2013-05-19 17:14:00,
2013-05-19 10:19:00,54.7,37.9,30.11,NW,317,3.0,7.0,53,0.00,,,0.00,WeatherTracker,2013-05-19 17:19:00,
2013-05-19 10:24:00,54.6,39.2,30.11,NW,317,0.0,6.0,56,0.00,,,0.00,WeatherTracker,2013-05-19 17:24:00,
2013-05-19 10:29:00,55.4,38.1,30.11,NW,323,0.0,6.0,52,0.00,,,0.00,WeatherTracker,2013-05-19 17:29:00,
2013-05-19 10:34:00,56.1,38.2,30.11,NW,323,3.0,4.0,51,0.00,,,0.00,WeatherTracker,2013-05-19 17:34:00,
2013-05-19 10:39:00,56.4,39.5,30.11,NNW,346,2.0,7.0,53,0.00,,,0.00,WeatherTracker,2013-05-19 17:39:00,
2013-05-19 10:44:00,56.9,39.5,30.11,North,355,2.0,7.0,52,0.00,,,0.00,WeatherTracker,2013-05-19 17:44:00,
2013-05-19 10:49:00,57.1,38.1,30.11,East,82,2.0,5.0,49,0.00,,,0.00,WeatherTracker,2013-05-19 17:49:00,
2013-05-19 10:54:00,57.2,37.7,30.11,ENE,77,2.0,5.0,48,0.00,,,0.00,WeatherTracker,2013-05-19 17:54:00,
2013-05-19 10:59:00,57.3,36.1,30.10,ENE,78,3.0,5.0,45,0.00,,,0.00,WeatherTracker,2013-05-19 17:59:00,
2013-05-19 11:04:00,57.4,34.5,30.10,NNE,31,2.0,5.0,42,0.00,,,0.00,WeatherTracker,2013-05-19 18:04:00,
2013-05-19 11:09:00,57.3,36.1,30.10,NW,323,0.0,5.0,45,0.00,,,0.00,WeatherTracker,2013-05-19 18:09:00,
2013-05-19 11:14:00,57.8,36.0,30.10,NE,36,6.0,6.0,44,0.00,,,0.00,WeatherTracker,2013-05-19 18:14:00,
2013-05-19 11:19:00,57.4,37.9,30.10,NE,55,7.0,9.0,48,0.00,,,0.00,WeatherTracker,2013-05-19 18:19:00,
2013-05-19 11:24:00,56.8,37.3,30.10,NE,53,2.0,12.0,48,0.00,,,0.00,WeatherTracker,2013-05-19 18:24:00,
2013-05-19 11:29:00,57.4,35.7,30.10,ENE,74,1.0,12.0,44,0.00,,,0.00,WeatherTracker,2013-05-19 18:29:00,
2013-05-19 11:34:00,58.5,38.9,30.10,ENE,59,1.0,8.0,48,0.00,,,0.00,WeatherTracker,2013-05-19 18:34:00,
2013-05-19 11:40:00,58.9,37.6,30.10,ENE,66,2.0,6.0,45,0.00,,,0.00,WeatherTracker,2013-05-19 18:40:00,
2013-05-19 11:45:00,59.0,35.9,30.09,ESE,117,6.0,9.0,42,0.00,,,0.00,WeatherTracker,2013-05-19 18:45:00,
2013-05-19 11:50:00,59.1,37.8,30.09,North,9,4.0,9.0,45,0.00,,,0.00,WeatherTracker,2013-05-19 18:50:00,
2013-05-19 11:55:00,59.0,37.7,30.09,ENE,72,4.0,7.0,45,0.00,,,0.00,WeatherTracker,2013-05-19 18:55:00,
2013-05-19 12:00:00,59.0,37.1,30.09,WSW,257,4.0,6.0,44,0.00,,,0.00,WeatherTracker,2013-05-19 19:00:00,
2013-05-19 12:05:00,61.1,38.4,30.09,WNW,288,2.0,8.0,43,0.00,,,0.00,WeatherTracker,2013-05-19 19:05:00,
2013-05-19 12:10:00,61.2,38.5,30.09,SW,221,7.0,8.0,43,0.00,,,0.00,WeatherTracker,2013-05-19 19:10:00,
2013-05-19 12:15:00,61.0,37.1,30.08,NW,304,1.0,8.0,41,0.00,,,0.00,WeatherTracker,2013-05-19 19:15:00,
2013-05-19 12:20:00,61.4,38.7,30.08,West,269,3.0,7.0,43,0.00,,,0.00,WeatherTracker,2013-05-19 19:20:00,
2013-05-19 12:25:00,62.2,39.4,30.08,NNW,327,0.0,6.0,43,0.00,,,0.00,WeatherTracker,2013-05-19 19:25:00,
2013-05-19 12:30:00,62.1,38.1,30.07,WNW,283,6.0,7.0,41,0.00,,,0.00,WeatherTracker,2013-05-19 19:30:00,
2013-05-19 12:35:00,62.2,39.4,30.07,WNW,282,0.0,9.0,43,0.00,,,0.00,WeatherTracker,2013-05-19 19:35:00,
2013-05-19 12:40:00,63.5,38.7,30.07,North,360,0.0,9.0,40,0.00,,,0.00,WeatherTracker,2013-05-19 19:40:00,
2013-05-19 12:45:00,63.5,36.8,30.07,WNW,284,2.0,7.0,37,0.00,,,0.00,WeatherTracker,2013-05-19 19:45:00,
2013-05-19 12:50:00,63.2,37.8,30.07,NW,307,2.0,7.0,39,0.00,,,0.00,WeatherTracker,2013-05-19 19:50:00,
2013-05-19 12:55:00,63.7,38.3,30.06,SW,233,3.0,9.0,39,0.00,,,0.00,WeatherTracker,2013-05-19 19:55:00,
2013-05-19 13:00:00,63.2,37.8,30.06,North,355,0.0,9.0,39,0.00,,,0.00,WeatherTracker,2013-05-19 20:00:00,
2013-05-19 13:05:00,63.4,38.0,30.06,West,267,4.0,9.0,39,0.00,,,0.00,WeatherTracker,2013-05-19 20:05:00,
2013-05-19 13:10:00,63.3,37.9,30.06,WNW,293,0.0,7.0,39,0.00,,,0.00,WeatherTracker,2013-05-19 20:10:00,
2013-05-19 13:15:00,63.8,38.4,30.06,WNW,302,1.0,7.0,39,0.00,,,0.00,WeatherTracker,2013-05-19 20:15:00,
2013-05-19 13:20:00,63.8,39.6,30.06,West,281,9.0,9.0,41,0.00,,,0.00,WeatherTracker,2013-05-19 20:20:00,
2013-05-19 13:25:00,63.5,40.6,30.05,West,280,4.0,9.0,43,0.00,,,0.00,WeatherTracker,2013-05-19 20:25:00,
2013-05-19 13:30:00,63.5,40.0,30.05,NNW,329,2.0,9.0,42,0.00,,,0.00,WeatherTracker,2013-05-19 20:30:00,
2013-05-19 13:35:00,64.2,38.1,30.05,WSW,257,6.0,7.0,38,0.00,,,0.00,WeatherTracker,2013-05-19 20:35:00,
2013-05-19 13:40:00,64.5,42.1,30.04,WNW,294,5.0,10.0,44,0.00,,,0.00,WeatherTracker,2013-05-19 20:40:00,
2013-05-19 13:45:00,64.7,37.8,30.04,NW,323,2.0,10.0,37,0.00,,,0.00,WeatherTracker,2013-05-19 20:45:00,
2013-05-19 13:50:00,65.2,37.6,30.04,NW,317,2.0,7.0,36,0.00,,,0.00,WeatherTracker,2013-05-19 20:50:00,
2013-05-19 13:55:00,65.5,38.5,30.04,WNW,296,3.0,5.0,37,0.00,,,0.00,WeatherTracker,2013-05-19 20:55:00,
2013-05-19 14:01:00,65.5,36.4,30.04,NW,318,3.0,6.0,34,0.00,,,0.00,WeatherTracker,2013-05-19 21:01:00,
2013-05-19 14:06:00,65.7,36.6,30.04,NW,319,0.0,6.0,34,0.00,,,0.00,WeatherTracker,2013-05-19 21:06:00,
2013-05-19 14:11:00,66.1,36.2,30.04,SW,222,0.0,5.0,33,0.00,,,0.00,WeatherTracker,2013-05-19 21:11:00,
2013-05-19 14:16:00,67.2,37.9,30.04,North,11,0.0,5.0,34,0.00,,,0.00,WeatherTracker,2013-05-19 21:16:00,
2013-05-19 14:21:00,68.0,38.6,30.03,NW,304,0.0,6.0,34,0.00,,,0.00,WeatherTracker,2013-05-19 21:21:00,
2013-05-19 14:26:00,68.4,41.1,30.03,NW,304,2.0,6.0,37,0.00,,,0.00,WeatherTracker,2013-05-19 21:26:00,
2013-05-19 14:31:00,68.9,39.4,30.03,West,280,7.0,7.0,34,0.00,,,0.00,WeatherTracker,2013-05-19 21:31:00,
2013-05-19 14:36:00,67.5,37.4,30.03,WSW,239,1.0,10.0,33,0.00,,,0.00,WeatherTracker,2013-05-19 21:36:00,
2013-05-19 14:41:00,67.2,37.1,30.03,NW,323,0.0,10.0,33,0.00,,,0.00,WeatherTracker,2013-05-19 21:41:00,
2013-05-19 14:46:00,67.8,36.9,30.03,West,269,5.0,6.0,32,0.00,,,0.00,WeatherTracker,2013-05-19 21:46:00,
2013-05-19 14:51:00,67.5,36.6,30.02,SW,215,4.0,8.0,32,0.00,,,0.00,WeatherTracker,2013-05-19 21:51:00,
2013-05-19 14:56:00,67.0,35.4,30.02,WSW,238,1.0,10.0,31,0.00,,,0.00,WeatherTracker,2013-05-19 21:56:00,
2013-05-19 15:01:00,67.0,34.5,30.02,SSW,197,6.0,10.0,30,0.00,,,0.00,WeatherTracker,2013-05-19 22:01:00,
2013-05-19 15:06:00,66.7,35.9,30.02,SW,221,7.0,10.0,32,0.00,,,0.00,WeatherTracker,2013-05-19 22:06:00,
2013-05-19 15:11:00,66.3,33.9,30.02,South,190,3.0,10.0,30,0.00,,,0.00,WeatherTracker,2013-05-19 22:11:00,
2013-05-19 15:16:00,66.5,35.7,30.02,West,277,6.0,8.0,32,0.00,,,0.00,WeatherTracker,2013-05-19 22:16:00,
2013-05-19 15:21:00,67.2,33.9,30.02,West,269,4.0,7.0,29,0.00,,,0.00,WeatherTracker,2013-05-19 22:21:00,
2013-05-19 15:26:00,67.6,35.1,30.02,West,277,6.0,8.0,30,0.00,,,0.00,WeatherTracker,2013-05-19 22:26:00,
2013-05-19 15:31:00,67.7,35.1,30.02,SW,225,2.0,10.0,30,0.00,,,0.00,WeatherTracker,2013-05-19 22:31:00,
2013-05-19 15:37:00,68.2,33.8,30.02,WSW,251,7.0,10.0,28,0.00,,,0.00,WeatherTracker,2013-05-19 22:37:00,
2013-05-19 15:42:00,67.7,33.4,30.01,WSW,243,1.0,12.0,28,0.00,,,0.00,WeatherTracker,2013-05-19 22:42:00,
2013-05-19 15:47:00,67.2,37.9,30.01,SW,226,2.0,12.0,34,0.00,,,0.00,WeatherTracker,2013-05-19 22:47:00,
2013-05-19 15:52:00,67.2,33.9,30.01,SSW,195,2.0,10.0,29,0.00,,,0.00,WeatherTracker,2013-05-19 22:52:00,
2013-05-19 15:57:00,67.5,35.0,30.01,SSW,196,0.0,10.0,30,0.00,,,0.00,WeatherTracker,2013-05-19 22:57:00,
2013-05-19 16:02:00,68.6,35.9,30.01,WSW,241,3.0,10.0,30,0.00,,,0.00,WeatherTracker,2013-05-19 23:02:00,
2013-05-19 16:07:00,68.4,35.7,30.01,SSW,209,0.0,10.0,30,0.00,,,0.00,WeatherTracker,2013-05-19 23:07:00,
2013-05-19 16:12:00,68.9,36.2,30.01,West,269,4.0,6.0,30,0.00,,,0.00,WeatherTracker,2013-05-19 23:12:00,
2013-05-19 16:17:00,69.6,35.9,30.01,WSW,254,7.0,7.0,29,0.00,,,0.00,WeatherTracker,2013-05-19 23:17:00,
2013-05-19 16:22:00,69.1,36.4,30.01,West,263,5.0,9.0,30,0.00,,,0.00,WeatherTracker,2013-05-19 23:22:00,
2013-05-19 16:27:00,68.6,37.6,30.01,West,275,7.0,11.0,32,0.00,,,0.00,WeatherTracker,2013-05-19 23:27:00,
2013-05-19 16:32:00,68.5,35.8,30.01,NW,325,4.0,11.0,30,0.00,,,0.00,WeatherTracker,2013-05-19 23:32:00,
2013-05-19 16:37:00,69.2,36.4,30.00,WNW,299,0.0,9.0,30,0.00,,,0.00,WeatherTracker,2013-05-19 23:37:00,
2013-05-19 16:42:00,69.6,35.9,30.00,West,278,9.0,9.0,29,0.00,,,0.00,WeatherTracker,2013-05-19 23:42:00,
2013-05-19 16:48:00,69.0,37.1,30.00,NW,304,0.0,12.0,31,0.00,,,0.00,WeatherTracker,2013-05-19 23:48:00,
2013-05-19 16:53:00,68.8,36.9,30.00,West,274,5.0,13.0,31,0.00,,,0.00,WeatherTracker,2013-05-19 23:53:00,
2013-05-19 16:58:00,68.8,36.9,30.00,WNW,283,5.0,13.0,31,0.00,,,0.00,WeatherTracker,2013-05-19 23:58:00,
2013-05-19 17:03:00,68.8,36.1,30.00,West,267,6.0,10.0,30,0.00,,,0.00,WeatherTracker,2013-05-20 00:03:00,
2013-05-19 17:08:00,68.8,38.5,30.00,West,266,9.0,9.0,33,0.00,,,0.00,WeatherTracker,2013-05-20 00:08:00,
2013-05-19 17:13:00,68.3,34.8,30.00,WSW,243,5.0,12.0,29,0.00,,,0.00,WeatherTracker,2013-05-20 00:13:00,
2013-05-19 17:18:00,68.0,35.4,30.00,WSW,257,7.0,12.0,30,0.00,,,0.00,WeatherTracker,2013-05-20 00:18:00,
2013-05-19 17:23:00,68.3,35.7,30.00,West,261,8.0,12.0,30,0.00,,,0.00,WeatherTracker,2013-05-20 00:23:00,
2013-05-19 17:28:00,68.3,37.3,30.00,West,279,6.0,12.0,32,0.00,,,0.00,WeatherTracker,2013-05-20 00:28:00,
2013-05-19 17:33:00,68.2,35.6,30.00,WNW,285,4.0,12.0,30,0.00,,,0.00,WeatherTracker,2013-05-20 00:33:00,
2013-05-19 17:38:00,68.1,35.5,30.00,West,277,5.0,13.0,30,0.00,,,0.00,WeatherTracker,2013-05-20 00:38:00,
2013-05-19 17:43:00,68.2,35.6,30.00,West,276,6.0,13.0,30,0.00,,,0.00,WeatherTracker,2013-05-20 00:43:00,
2013-05-19 17:48:00,68.1,35.5,30.00,WNW,288,6.0,11.0,30,0.00,,,0.00,WeatherTracker,2013-05-20 00:48:00,
2013-05-19 17:53:00,67.8,33.5,30.00,West,265,10.0,10.0,28,0.00,,,0.00,WeatherTracker,2013-05-20 00:53:00,
2013-05-19 17:58:00,67.9,35.3,30.00,West,281,5.0,11.0,30,0.00,,,0.00,WeatherTracker,2013-05-20 00:58:00,
2013-05-19 18:03:00,67.8,33.5,30.00,West,265,6.0,11.0,28,0.00,,,0.00,WeatherTracker,2013-05-20 01:03:00,
2013-05-19 18:08:00,67.7,35.1,30.00,West,279,5.0,11.0,30,0.00,,,0.00,WeatherTracker,2013-05-20 01:08:00,
2013-05-19 18:13:00,67.4,34.9,30.00,West,279,4.0,11.0,30,0.00,,,0.00,WeatherTracker,2013-05-20 01:13:00,
2013-05-19 18:18:00,67.2,36.3,30.00,West,263,7.0,11.0,32,0.00,,,0.00,WeatherTracker,2013-05-20 01:18:00,
2013-05-19 18:23:00,66.9,35.3,30.00,West,277,4.0,11.0,31,0.00,,,0.00,WeatherTracker,2013-05-20 01:23:00,
2013-05-19 18:28:00,66.6,35.8,30.00,West,269,5.0,10.0,32,0.00,,,0.00,WeatherTracker,2013-05-20 01:28:00,
2013-05-19 18:33:00,66.5,34.9,30.00,WNW,285,5.0,12.0,31,0.00,,,0.00,WeatherTracker,2013-05-20 01:33:00,
2013-05-19 18:38:00,66.2,36.2,30.00,WNW,282,5.0,12.0,33,0.00,,,0.00,WeatherTracker,2013-05-20 01:38:00,
2013-05-19 18:43:00,65.9,38.2,30.00,West,269,4.0,12.0,36,0.00,,,0.00,WeatherTracker,2013-05-20 01:43:00,
2013-05-19 18:48:00,65.7,38.0,30.00,West,281,7.0,9.0,36,0.00,,,0.00,WeatherTracker,2013-05-20 01:48:00,
2013-05-19 18:54:00,65.4,37.7,30.01,WNW,283,5.0,11.0,36,0.00,,,0.00,WeatherTracker,2013-05-20 01:54:00,
2013-05-19 18:59:00,64.8,37.9,30.01,West,264,9.0,11.0,37,0.00,,,0.00,WeatherTracker,2013-05-20 01:59:00,
2013-05-19 19:04:00,64.3,38.1,30.01,West,265,5.0,11.0,38,0.00,,,0.00,WeatherTracker,2013-05-20 02:04:00,
2013-05-19 19:09:00,63.9,37.8,30.01,West,277,5.0,10.0,38,0.00,,,0.00,WeatherTracker,2013-05-20 02:09:00,
2013-05-19 19:14:00,63.2,37.8,30.01,WSW,254,5.0,10.0,39,0.00,,,0.00,WeatherTracker,2013-05-20 02:14:00,
2013-05-19 19:19:00,61.7,39.0,30.02,WSW,252,2.0,11.0,43,0.00,,,0.00,WeatherTracker,2013-05-20 02:19:00,
2013-05-19 19:24:00,59.9,38.5,30.02,WSW,242,3.0,11.0,45,0.00,,,0.00,WeatherTracker,2013-05-20 02:24:00,
2013-05-19 19:29:00,58.3,37.6,30.02,SW,235,4.0,6.0,46,0.00,,,0.00,WeatherTracker,2013-05-20 02:29:00,
2013-05-19 19:34:00,57.1,36.0,30.02,SW,223,5.0,5.0,45,0.00,,,0.00,WeatherTracker,2013-05-20 02:34:00,
2013-05-19 19:39:00,56.6,35.5,30.02,SW,223,5.0,6.0,45,0.00,,,0.00,WeatherTracker,2013-05-20 02:39:00,
2013-05-19 19:44:00,58.2,37.0,30.03,NW,316,3.0,6.0,45,0.00,,,0.00,WeatherTracker,2013-05-20 02:44:00,
2013-05-19 19:49:00,58.3,32.8,30.03,NW,311,4.0,6.0,38,0.00,,,0.00,WeatherTracker,2013-05-20 02:49:00,
2013-05-19 19:54:00,58.0,31.2,30.03,NW,313,3.0,6.0,36,0.00,,,0.00,WeatherTracker,2013-05-20 02:54:00,
2013-05-19 19:59:00,58.6,30.3,30.04,NW,306,3.0,6.0,34,0.00,,,0.00,WeatherTracker,2013-05-20 02:59:00,
2013-05-19 20:04:00,58.9,30.6,30.04,NW,306,3.0,6.0,34,0.00,,,0.00,WeatherTracker,2013-05-20 03:04:00,
2013-05-19 20:09:00,58.4,30.9,30.04,NW,306,3.0,7.0,35,0.00,,,0.00,WeatherTracker,2013-05-20 03:09:00,
2013-05-19 20:14:00,57.8,30.3,30.05,WNW,298,4.0,7.0,35,0.00,,,0.00,WeatherTracker,2013-05-20 03:14:00,
2013-05-19 20:19:00,57.9,29.7,30.05,NW,309,2.0,7.0,34,0.00,,,0.00,WeatherTracker,2013-05-20 03:19:00,
2013-05-19 20:24:00,57.8,28.9,30.05,WNW,301,5.0,8.0,33,0.00,,,0.00,WeatherTracker,2013-05-20 03:24:00,
2013-05-19 20:29:00,57.3,29.2,30.05,WNW,287,6.0,8.0,34,0.00,,,0.00,WeatherTracker,2013-05-20 03:29:00,
2013-05-19 20:34:00,56.8,28.0,30.05,North,360,6.0,8.0,33,0.00,,,0.00,WeatherTracker,2013-05-20 03:34:00,
2013-05-19 20:39:00,56.7,28.7,30.05,West,271,5.0,8.0,34,0.00,,,0.00,WeatherTracker,2013-05-20 03:39:00,
2013-05-19 20:44:00,56.5,27.0,30.05,West,270,4.0,9.0,32,0.00,,,0.00,WeatherTracker,2013-05-20 03:44:00,
2013-05-19 20:49:00,56.3,27.6,30.05,North,360,6.0,9.0,33,0.00,,,0.00,WeatherTracker,2013-05-20 03:49:00,
2013-05-19 20:54:00,56.1,26.7,30.06,West,267,5.0,7.0,32,0.00,,,0.00,WeatherTracker,2013-05-20 03:54:00,
2013-05-19 20:59:00,55.6,26.2,30.06,West,269,4.0,7.0,32,0.00,,,0.00,WeatherTracker,2013-05-20 03:59:00,
2013-05-19 21:01:00,55.6,26.2,30.06,West,271,5.0,7.0,32,0.00,,,0.00,WeatherTracker,2013-05-20 04:01:00,
2013-05-19 21:02:00,55.6,25.5,30.06,West,271,4.0,7.0,31,0.00,,,0.00,WeatherTracker,2013-05-20 04:02:00,
2013-05-19 21:07:00,55.8,25.6,30.06,West,270,4.0,7.0,31,0.00,,,0.00,WeatherTracker,2013-05-20 04:07:00,
2013-05-19 21:12:00,55.6,25.5,30.07,West,273,4.0,6.0,31,0.00,,,0.00,WeatherTracker,2013-05-20 04:12:00,
2013-05-19 21:17:00,56.1,25.9,30.07,West,272,4.0,6.0,31,0.00,,,0.00,WeatherTracker,2013-05-20 04:17:00,
2013-05-19 21:22:00,55.7,25.5,30.07,West,267,3.0,6.0,31,0.00,,,0.00,WeatherTracker,2013-05-20 04:22:00,
2013-05-19 21:27:00,55.3,25.2,30.08,West,267,4.0,5.0,31,0.00,,,0.00,WeatherTracker,2013-05-20 04:27:00,
2013-05-19 21:32:00,55.5,25.4,30.08,West,267,2.0,5.0,31,0.00,,,0.00,WeatherTracker,2013-05-20 04:32:00,
2013-05-19 21:37:00,54.6,25.3,30.08,West,264,4.0,5.0,32,0.00,,,0.00,WeatherTracker,2013-05-20 04:37:00,
2013-05-19 21:42:00,53.7,29.3,30.08,West,267,0.0,5.0,39,0.00,,,0.00,WeatherTracker,2013-05-20 04:42:00,
2013-05-19 21:47:00,52.6,27.1,30.08,West,265,0.0,5.0,37,0.00,,,0.00,WeatherTracker,2013-05-20 04:47:00,
2013-05-19 21:52:00,51.8,27.6,30.09,West,267,1.0,2.0,39,0.00,,,0.00,WeatherTracker,2013-05-20 04:52:00,
2013-05-19 21:57:00,50.6,27.8,30.09,West,267,0.0,3.0,41,0.00,,,0.00,WeatherTracker,2013-05-20 04:57:00,
2013-05-19 22:02:00,49.9,28.9,30.09,West,266,1.0,3.0,44,0.00,,,0.00,WeatherTracker,2013-05-20 05:02:00,
2013-05-19 22:07:00,49.6,26.9,30.09,West,267,2.0,2.0,41,0.00,,,0.00,WeatherTracker,2013-05-20 05:07:00,
2013-05-19 22:12:00,49.2,27.7,30.09,West,264,0.0,2.0,43,0.00,,,0.00,WeatherTracker,2013-05-20 05:12:00,
2013-05-19 22:17:00,48.8,26.2,30.09,West,265,1.0,2.0,41,0.00,,,0.00,WeatherTracker,2013-05-20 05:17:00,
2013-05-19 22:22:00,48.8,26.7,30.09,West,265,1.0,4.0,42,0.00,,,0.00,WeatherTracker,2013-05-20 05:22:00,
2013-05-19 22:27:00,48.5,26.5,30.10,West,267,1.0,4.0,42,0.00,,,0.00,WeatherTracker,2013-05-20 05:27:00,
2013-05-19 22:32:00,49.2,24.7,30.10,West,264,3.0,5.0,38,0.00,,,0.00,WeatherTracker,2013-05-20 05:32:00,
2013-05-19 22:37:00,49.8,27.1,30.10,West,265,0.0,5.0,41,0.00,,,0.00,WeatherTracker,2013-05-20 05:37:00,
2013-05-19 22:43:00,49.2,27.7,30.10,West,264,2.0,4.0,43,0.00,,,0.00,WeatherTracker,2013-05-20 05:43:00,
2013-05-19 22:48:00,48.6,26.0,30.10,North,360,0.0,4.0,41,0.00,,,0.00,WeatherTracker,2013-05-20 05:48:00,
2013-05-19 22:53:00,47.7,26.9,30.10,North,360,1.0,5.0,44,0.00,,,0.00,WeatherTracker,2013-05-20 05:53:00,
2013-05-19 22:58:00,47.7,26.3,30.10,WSW,254,5.0,6.0,43,0.00,,,0.00,WeatherTracker,2013-05-20 05:58:00,
2013-05-19 23:03:00,47.6,26.8,30.10,WSW,254,2.0,6.0,44,0.00,,,0.00,WeatherTracker,2013-05-20 06:03:00,
2013-05-19 23:08:00,47.0,26.2,30.10,WSW,254,1.0,6.0,44,0.00,,,0.00,WeatherTracker,2013-05-20 06:08:00,
2013-05-19 23:13:00,47.0,29.8,30.10,WSW,254,1.0,3.0,51,0.00,,,0.00,WeatherTracker,2013-05-20 06:13:00,
2013-05-19 23:18:00,46.5,27.9,30.10,WSW,253,2.0,2.0,48,0.00,,,0.00,WeatherTracker,2013-05-20 06:18:00,
2013-05-19 23:23:00,46.0,27.4,30.10,WSW,252,2.0,3.0,48,0.00,,,0.00,WeatherTracker,2013-05-20 06:23:00,
2013-05-19 23:28:00,46.1,26.5,30.11,SW,214,2.0,3.0,46,0.00,,,0.00,WeatherTracker,2013-05-20 06:28:00,
2013-05-19 23:33:00,44.6,30.7,30.11,SSW,210,4.0,5.0,58,0.00,,,0.00,WeatherTracker,2013-05-20 06:33:00,
2013-05-19 23:38:00,43.3,30.4,30.11,SSW,198,2.0,5.0,60,0.00,,,0.00,WeatherTracker,2013-05-20 06:38:00,
2013-05-19 23:43:00,42.9,29.2,30.11,SSW,196,3.0,5.0,58,0.00,,,0.00,WeatherTracker,2013-05-20 06:43:00,
2013-05-19 23:48:00,43.1,28.0,30.11,SSW,196,2.0,5.0,55,0.00,,,0.00,WeatherTracker,2013-05-20 06:48:00,
2013-05-19 23:53:00,43.5,28.0,30.11,SSW,196,2.0,4.0,54,0.00,,,0.00,WeatherTracker,2013-05-20 06:53:00,
2013-05-19 23:58:00,42.9,27.9,30.11,SSW,196,2.0,4.0,55,0.00,,,0.00,WeatherTracker,2013-05-20 06:58:00,